• In Russia
  • List of Countries
  • For 7 days
  • Water Temperature
  • Satellite Maps
  • Weather Map
  • Weather Widgets
  • user-avatar
    Login

    Hourly Weather Salta

    Today, 22 September, Saturday

    Time Temperature Precipitation Wind Pressure Humidity
    00:00 +22°C° 0 mm 1 mps 649 mmHg 65%
    01:00 +22°C° 0 mm 1 mps 649 mmHg 64%
    02:00 +21°C° 0 mm 1 mps 648 mmHg 63%
    03:00 +21°C° 0 mm 1 mps 648 mmHg 61%
    04:00 +21°C° 0 mm 1 mps 648 mmHg 59%
    05:00 +21°C° 0 mm 1 mps 648 mmHg 56%
    06:00 +22°C° 0 mm 1 mps 648 mmHg 51%
    07:00 +24°C° 0 mm 1 mps 649 mmHg 46%
    08:00 +26°C° 0 mm 1 mps 650 mmHg 41%
    09:00 +28°C° 0 mm 1 mps 650 mmHg 36%
    10:00 +30°C° 0 mm 2 mps 651 mmHg 31%
    11:00 +32°C° 0 mm 2 mps 651 mmHg 26%
    12:00 +34°C° 0 mm 2 mps 651 mmHg 24%
    13:00 +35°C° 0 mm 2 mps 650 mmHg 22%
    14:00 +36°C° 0 mm 3 mps 650 mmHg 21%
    15:00 +36°C° 0 mm 3 mps 649 mmHg 23%
    16:00 +35°C° 0 mm 3 mps 649 mmHg 25%
    17:00 +34°C° 0 mm 3 mps 648 mmHg 28%
    18:00 +31°C° 0.1 mm 2 mps 648 mmHg 35%
    19:00 +29°C° 0.1 mm 2 mps 648 mmHg 42%
    20:00 +26°C° 0.1 mm 1 mps 648 mmHg 49%
    21:00 +26°C° 0.1 mm 1 mps 648 mmHg 50%
    22:00 +25°C° 0.1 mm 1 mps 648 mmHg 52%
    23:00 +25°C° 0.1 mm 1 mps 648 mmHg 53%

    Tomorrow, 23 September, Sunday

    Time Temperature Precipitation Wind Pressure Humidity
    00:00 +25°C° 0 mm 1 mps 648 mmHg 52%
    01:00 +24°C° 0 mm 2 mps 648 mmHg 51%
    02:00 +24°C° 0 mm 2 mps 648 mmHg 49%
    03:00 +24°C° 0 mm 2 mps 648 mmHg 46%
    04:00 +23°C° 0 mm 2 mps 647 mmHg 43%
    05:00 +23°C° 0 mm 2 mps 647 mmHg 39%
    06:00 +25°C° 0 mm 2 mps 648 mmHg 34%
    07:00 +27°C° 0 mm 1 mps 649 mmHg 29%
    08:00 +29°C° 0 mm 1 mps 650 mmHg 24%
    09:00 +31°C° 0 mm 1 mps 651 mmHg 21%
    10:00 +34°C° 0 mm 2 mps 651 mmHg 18%
    11:00 +36°C° 0 mm 2 mps 651 mmHg 15%
    12:00 +37°C° 0 mm 2 mps 651 mmHg 15%
    13:00 +37°C° 0 mm 3 mps 650 mmHg 15%
    14:00 +37°C° 0 mm 3 mps 650 mmHg 15%
    15:00 +37°C° 0 mm 3 mps 650 mmHg 18%
    16:00 +36°C° 0 mm 3 mps 649 mmHg 20%
    17:00 +35°C° 0 mm 3 mps 649 mmHg 23%
    18:00 +33°C° 0.7 mm 3 mps 649 mmHg 32%
    19:00 +29°C° 0.7 mm 2 mps 649 mmHg 40%
    20:00 +27°C° 0.7 mm 2 mps 650 mmHg 48%
    21:00 +26°C° 1.1 mm 1 mps 650 mmHg 53%
    22:00 +25°C° 1.1 mm 1 mps 650 mmHg 58%
    23:00 +24°C° 1.1 mm 1 mps 651 mmHg 63%

    Day after tomorrow, 24 September, Monday

    Time Temperature Precipitation Wind Pressure Humidity
    00:00 +24°C° 0.6 mm 1 mps 650 mmHg 63%
    01:00 +23°C° 0.6 mm 1 mps 650 mmHg 64%
    02:00 +23°C° 0.6 mm 2 mps 650 mmHg 64%
    03:00 +22°C° 0 mm 1 mps 650 mmHg 67%
    04:00 +22°C° 0 mm 1 mps 650 mmHg 69%
    05:00 +21°C° 0 mm 1 mps 650 mmHg 71%
    06:00 +21°C° 0.1 mm 2 mps 650 mmHg 71%
    07:00 +21°C° 0.1 mm 2 mps 651 mmHg 70%
    08:00 +23°C° 0.1 mm 2 mps 652 mmHg 70%
    09:00 +24°C° 0.1 mm 2 mps 652 mmHg 66%
    10:00 +25°C° 0.1 mm 3 mps 652 mmHg 62%
    11:00 +26°C° 0.1 mm 3 mps 652 mmHg 58%
    12:00 +25°C° 0.1 mm 3 mps 651 mmHg 61%
    13:00 +25°C° 0.1 mm 3 mps 651 mmHg 63%
    14:00 +24°C° 0.1 mm 3 mps 650 mmHg 66%
    15:00 +24°C° 0.4 mm 3 mps 649 mmHg 68%
    16:00 +23°C° 0.4 mm 2 mps 649 mmHg 70%
    17:00 +21°C° 0.4 mm 2 mps 649 mmHg 73%
    18:00 +21°C° 0.5 mm 2 mps 649 mmHg 75%
    19:00 +20°C° 0.5 mm 2 mps 649 mmHg 77%
    20:00 +21°C° 0.5 mm 1 mps 650 mmHg 79%
    21:00 +21°C° 0.1 mm 1 mps 650 mmHg 79%
    22:00 +20°C° 0.1 mm 1 mps 650 mmHg 79%
    23:00 +20°C° 0.1 mm 1 mps 650 mmHg 79%

    25 September, Tuesday

    Time Temperature Precipitation Wind Pressure Humidity
    00:00 +20°C° 0 mm 1 mps 650 mmHg 80%
    01:00 +19°C° 0 mm 1 mps 650 mmHg 81%
    02:00 +19°C° 0 mm 1 mps 649 mmHg 82%
    03:00 +19°C° 0 mm 1 mps 649 mmHg 81%
    04:00 +18°C° 0 mm 1 mps 649 mmHg 80%
    05:00 +18°C° 0 mm 1 mps 649 mmHg 78%
    06:00 +19°C° 0 mm 1 mps 649 mmHg 72%
    07:00 +20°C° 0 mm 1 mps 650 mmHg 66%
    08:00 +21°C° 0 mm 1 mps 651 mmHg 61%
    09:00 +23°C° 0 mm 1 mps 651 mmHg 54%
    10:00 +25°C° 0 mm 2 mps 651 mmHg 47%
    11:00 +27°C° 0 mm 2 mps 651 mmHg 40%
    12:00 +28°C° 0 mm 2 mps 651 mmHg 39%
    13:00 +28°C° 0 mm 3 mps 650 mmHg 38%
    14:00 +29°C° 0 mm 3 mps 649 mmHg 37%
    15:00 +28°C° 0.1 mm 3 mps 649 mmHg 39%
    16:00 +27°C° 0.1 mm 3 mps 649 mmHg 42%
    17:00 +27°C° 0.1 mm 3 mps 648 mmHg 44%
    18:00 +25°C° 0.3 mm 2 mps 648 mmHg 52%
    19:00 +23°C° 0.3 mm 2 mps 649 mmHg 60%
    20:00 +22°C° 0.3 mm 1 mps 649 mmHg 67%
    21:00 +21°C° 0 mm 1 mps 649 mmHg 68%
    22:00 +21°C° 0 mm 1 mps 649 mmHg 70%
    23:00 +20°C° 0 mm 1 mps 649 mmHg 71%

    26 September, Wednesday

    Time Temperature Precipitation Wind Pressure Humidity
    00:00 +20°C° 0 mm 1 mps 649 mmHg 69%
    01:00 +20°C° 0 mm 1 mps 648 mmHg 68%
    02:00 +19°C° 0 mm 1 mps 648 mmHg 66%
    03:00 +19°C° 0 mm 1 mps 648 mmHg 64%
    04:00 +19°C° 0 mm 1 mps 648 mmHg 62%
    05:00 +19°C° 0 mm 1 mps 648 mmHg 60%
    06:00 +20°C° 0 mm 1 mps 649 mmHg 57%
    07:00 +21°C° 0 mm 1 mps 650 mmHg 53%
    08:00 +23°C° 0 mm 1 mps 651 mmHg 49%
    09:00 +24°C° 0 mm 2 mps 651 mmHg 47%
    10:00 +25°C° 0 mm 2 mps 651 mmHg 45%
    11:00 +26°C° 0 mm 2 mps 651 mmHg 43%
    12:00 +27°C° 0 mm 2 mps 650 mmHg 42%
    13:00 +28°C° 0 mm 3 mps 650 mmHg 41%
    14:00 +29°C° 0 mm 3 mps 649 mmHg 39%
    15:00 +28°C° 0.2 mm 3 mps 649 mmHg 42%
    16:00 +28°C° 0.2 mm 3 mps 648 mmHg 45%
    17:00 +27°C° 0.2 mm 3 mps 648 mmHg 48%
    18:00 +26°C° 0.2 mm 2 mps 648 mmHg 56%
    19:00 +24°C° 0.2 mm 2 mps 649 mmHg 64%
    20:00 +22°C° 0.2 mm 1 mps 649 mmHg 72%
    21:00 +22°C° 0 mm 1 mps 649 mmHg 73%
    22:00 +22°C° 0 mm 1 mps 649 mmHg 75%
    23:00 +21°C° 0 mm 1 mps 650 mmHg 76%

    27 September, Thursday

    Time Temperature Precipitation Wind Pressure Humidity
    00:00 +21°C° 0 mm 1 mps 649 mmHg 76%
    01:00 +21°C° 0 mm 1 mps 649 mmHg 76%
    02:00 +20°C° 0 mm 1 mps 649 mmHg 76%
    03:00 +20°C° 0 mm 1 mps 649 mmHg 74%
    04:00 +20°C° 0 mm 1 mps 649 mmHg 72%
    05:00 +20°C° 0 mm 1 mps 649 mmHg 70%
    06:00 +21°C° 0 mm 1 mps 650 mmHg 65%
    07:00 +22°C° 0 mm 1 mps 651 mmHg 60%
    08:00 +23°C° 0 mm 1 mps 652 mmHg 55%
    09:00 +24°C° 0 mm 2 mps 651 mmHg 53%
    10:00 +25°C° 0 mm 2 mps 651 mmHg 52%
    11:00 +26°C° 0 mm 2 mps 651 mmHg 50%
    12:00 +27°C° 0 mm 2 mps 651 mmHg 48%
    13:00 +28°C° 0 mm 3 mps 650 mmHg 46%
    14:00 +29°C° 0 mm 3 mps 649 mmHg 44%
    15:00 +28°C° 0 mm 3 mps 649 mmHg 48%
    16:00 +27°C° 0 mm 3 mps 648 mmHg 52%
    17:00 +27°C° 0 mm 3 mps 648 mmHg 56%
    18:00 +26°C° 0 mm 2 mps 648 mmHg 62%
    19:00 +24°C° 0 mm 2 mps 648 mmHg 68%
    20:00 +23°C° 0 mm 2 mps 649 mmHg 74%
    21:00 +23°C° 0 mm 1 mps 649 mmHg 77%
    22:00 +22°C° 0 mm 1 mps 649 mmHg 79%
    23:00 +21°C° 0 mm 1 mps 649 mmHg 82%
    Show more